[[{"header":{"parameterUnit":"m.s-1","parameterCategory":1,"la1":30.2991,"la2":30.254,"lo1":-89.0895,"lo2":-89.0444,"dy":0.0017,"dx":0.0017,"nx":28,"ny":28,"refTime":"2023-07-26T03:00:00:Z","depth":0,"parameterNumber":2,"parameterNumberName":"U-component_of_WINDS"},"data":[0,0,0,0,0,0,0,0,0,0,0,0,0,0,0,0,0,0,0,0,0,0,0,0,0,0,0,0,0,0,0,0,0,0,0,0,0,0,0,0,0,0,0,0,0,0,0,0,0,0,0,0,0,0,0,0,0,0,1.1787,1.1787,0,1.1781,1.1781,1.1781,1.1725,1.1723,1.1722,1.1721,1.1716,1.1717,1.1718,0,0,0,0,0,0,0,0,0,0,0,0,0,1.1751,1.1752,1.1787,1.1787,1.1787,1.1781,1.1781,1.1781,1.1725,1.1723,1.1722,1.172,1.1715,1.1717,1.1718,0,0,0,0,0,0,0,0,0,0,0,0,0,1.1758,1.1752,1.1787,1.1758,1.1756,1.1781,1.1781,1.1781,1.1725,1.1723,1.1721,1.1719,1.1715,1.1717,1.1718,1.1771,0,0,1.1724,1.1724,0,0,0,0,0,0,0,0,1.1758,1.1759,1.1763,1.176,1.1757,1.1751,1.1766,1.1778,1.1726,1.1737,1.1721,1.1718,1.1729,1.173,1.1733,1.1771,1.177,1.1724,1.1725,1.1726,1.1726,0,0,0,0,0,0,0,1.1757,1.1759,1.1785,1.1763,1.176,1.1746,1.1745,1.1768,1.1745,1.1736,1.1732,1.1732,1.1728,1.1732,1.1733,1.177,1.1724,1.1725,1.1726,1.1727,1.185,1.1852,0,0,0,0,0,0,1.1761,1.1759,1.1785,1.1784,1.1752,1.1748,1.1747,1.1756,1.1745,1.1741,1.1734,1.1729,1.173,1.1731,1.1732,1.1792,1.1726,1.1727,1.1728,1.1848,1.185,1.1853,0,0,0,0,0,0,1.176,1.1763,1.1785,1.1771,1.1772,1.1751,1.1761,1.1757,1.1761,1.1743,1.1739,1.1742,1.1728,1.173,1.1761,1.1791,1.1728,1.173,1.1845,1.1848,1.1851,1.1914,0,0,0,0,0,0,1.1759,1.1764,1.1783,1.1772,1.1773,1.1814,1.1763,1.1758,1.1764,1.1758,1.175,1.1746,1.1727,1.1759,1.1763,1.1793,1.1731,1.1842,1.1846,1.185,1.1909,1.1919,1.1927,0,0,0,0,0,1.1758,1.1802,1.1785,1.1788,1.1798,1.1816,1.1817,1.1793,1.1766,1.1786,1.1774,1.1747,1.1788,1.1763,1.1767,1.1798,1.184,1.1845,1.185,1.1905,1.1917,1.1927,0,0,0,0,0,0,1.1818,1.18,1.178,1.1821,1.1821,1.1807,1.1831,1.1807,1.1814,1.1809,1.1779,1.1778,1.1814,1.1809,1.1781,1.1847,1.1809,1.1815,1.1849,1.1861,1.187,1.187,1.1732,0,0,0,0,0,1.1836,1.1852,1.1835,1.1873,1.1874,1.1852,1.186,1.1841,1.1839,1.1839,1.183,1.183,1.1842,1.1851,1.1862,1.1908,1.1905,1.1931,1.194,1.1948,1.1953,1.1976,1.1988,1.1869,1.1869,1.1869,0,0,1.1873,1.1865,1.1877,1.1885,1.1882,1.19,1.1853,1.1873,1.1886,1.1842,1.1871,1.1865,1.1862,1.1901,1.1918,1.1898,1.1985,1.1954,1.196,1.1962,1.1983,1.1994,1.2004,1.1872,1.1872,1.1871,0,0,1.195,1.1946,1.1976,1.1974,1.197,1.1956,1.1963,1.1953,1.1946,1.1975,1.1942,1.1957,1.198,1.1979,1.1982,1.2057,1.2032,1.2062,1.211,1.2132,1.2142,1.215,1.2176,1.2186,1.2067,1.2068,1.2068,0,1.1996,1.2021,1.1995,1.2017,1.2021,1.1982,1.2012,1.2012,1.2012,1.2016,1.1994,1.2021,1.2017,1.2054,1.2073,1.2077,1.2084,1.2062,1.2143,1.215,1.2158,1.2182,1.2192,1.2071,1.2071,1.207,1.207,0,1.2078,1.2096,1.2121,1.2122,1.2129,1.2155,1.2133,1.2143,1.2124,1.2112,1.2141,1.2135,1.2143,1.2151,1.2133,1.2186,1.2174,1.2148,1.2108,1.2173,1.2196,1.2205,1.2076,1.2075,1.2074,1.2073,0,0,1.2192,1.2177,1.2187,1.2186,1.2179,1.2192,1.2217,1.2224,1.2233,1.2235,1.2255,1.2275,1.225,1.2253,1.2235,1.2255,1.2315,1.2227,1.2226,1.2243,1.2372,1.2391,1.2402,1.2298,1.23,1.2301,1.2372,0,1.2265,1.2306,1.2282,1.2326,1.2342,1.2305,1.2326,1.2324,1.2314,1.2326,1.2314,1.2328,1.2295,1.2297,1.2315,1.2304,1.234,1.2298,1.2316,1.2317,1.2317,1.2414,1.2434,1.2502,1.2381,1.2382,1.2383,0,1.2356,1.236,1.2406,1.2394,1.24,1.242,1.2424,1.2436,1.2433,1.2424,1.2427,1.2404,1.2427,1.2389,1.2421,1.2393,1.2398,1.2394,1.2396,1.2396,1.2353,1.2416,1.2522,1.2532,1.2397,1.2396,1.2395,0,1.2433,1.2451,1.248,1.248,1.2468,1.2483,1.2479,1.2473,1.2479,1.2484,1.2487,1.2495,1.2498,1.2505,1.2484,1.2458,1.2518,1.2478,1.2511,1.2511,1.2525,1.2524,1.2632,1.253,1.253,1.253,1.253,0,1.2516,1.2545,1.2514,1.2532,1.2563,1.2536,1.2568,1.256,1.2556,1.2571,1.254,1.2555,1.2527,1.254,1.2524,1.2552,1.2555,1.2548,1.2543,1.255,1.2551,1.2553,1.2547,1.2532,1.2532,1.2531,1.2531,0,1.2608,1.2588,1.2617,1.2603,1.26,1.2624,1.2612,1.2628,1.2615,1.2635,1.2639,1.2619,1.2632,1.2612,1.2623,1.2612,1.2651,1.264,1.2652,1.2648,1.2681,1.2678,1.2794,1.2808,1.2698,1.2699,1.27,0,1.2662,1.2683,1.2671,1.2679,1.2676,1.269,1.2695,1.2669,1.2676,1.2674,1.269,1.2701,1.2708,1.2731,1.2717,1.2726,1.2714,1.2754,1.2715,1.2721,1.2713,1.2712,1.2713,1.2762,1.2763,1.2764,1.2765,0,1.276,1.2748,1.2757,1.2763,1.277,1.2773,1.2774,1.2782,1.2755,1.2765,1.2777,1.2783,1.2794,1.2804,1.2809,1.2805,1.2781,1.2777,1.2785,1.2792,1.2798,1.2794,1.2672,1.2775,1.2774,1.2773,1.2772,1.2772,1.2833,1.285,1.2844,1.2854,1.2852,1.2854,1.2867,1.2856,1.2866,1.2872,1.2857,1.2873,1.2869,1.2873,1.2872,1.2884,1.2866,1.2878,1.2881,1.2884,1.2888,1.2797,1.2885,1.2885,1.2884,1.2884,1.2884,0,1.2928,1.2922,1.2932,1.2934,1.2942,1.2918,1.2918,1.2926,1.2941,1.2939,1.2946,1.296,1.2971,1.2958,1.2966,1.2978,1.2967,1.2981,1.2979,1.2979,1.2904,1.2896,1.299,1.299,1.299,1.299,1.299,1.299,1.2978,1.3005,1.2993,1.3019,1.3012,1.3027,1.3029,1.303,1.3028,1.3046,1.3053,1.3045,1.3039,1.3046,1.3054,1.305,1.3054,1.3072,1.3064,1.2994,1.2984,1.2974,1.2966,1.3073,1.3073,1.3137,1.3137,1.3138]},{"header":{"parameterUnit":"m.s-1","parameterCategory":1,"la1":30.2991,"la2":30.254,"lo1":-89.0895,"lo2":-89.0444,"dy":0.0017,"dx":0.0017,"nx":28,"ny":28,"refTime":"2023-07-26T03:00:00:Z","depth":0,"parameterNumber":3,"parameterNumberName":"V-component_of_WINDS"},"data":[0,0,0,0,0,0,0,0,0,0,0,0,0,0,0,0,0,0,0,0,0,0,0,0,0,0,0,0,0,0,0,0,0,0,0,0,0,0,0,0,0,0,0,0,0,0,0,0,0,0,0,0,0,0,0,0,0,0,-1.2804,-1.2804,0,-1.2862,-1.2863,-1.2864,-1.2895,-1.2895,-1.2895,-1.2895,-1.2956,-1.2958,-1.2959,0,0,0,0,0,0,0,0,0,0,0,0,0,-1.272,-1.2721,-1.2804,-1.2804,-1.2805,-1.2862,-1.2863,-1.2864,-1.2895,-1.2895,-1.2895,-1.2895,-1.2956,-1.2958,-1.2959,0,0,0,0,0,0,0,0,0,0,0,0,0,-1.2765,-1.2722,-1.2803,-1.2827,-1.283,-1.2862,-1.2863,-1.2864,-1.2895,-1.2895,-1.2895,-1.2895,-1.2955,-1.2957,-1.296,-1.2973,0,0,-1.2967,-1.2968,0,0,0,0,0,0,0,0,-1.2763,-1.2768,-1.2823,-1.2826,-1.2829,-1.2871,-1.2856,-1.2901,-1.2895,-1.287,-1.2895,-1.2895,-1.2928,-1.2933,-1.2943,-1.2975,-1.2978,-1.2967,-1.2969,-1.297,-1.297,0,0,0,0,0,0,0,-1.2759,-1.2766,-1.2827,-1.2824,-1.2828,-1.2836,-1.2842,-1.2865,-1.2898,-1.2873,-1.2875,-1.2881,-1.293,-1.2941,-1.2945,-1.2979,-1.2967,-1.2969,-1.2971,-1.2972,-1.3026,-1.3026,0,0,0,0,0,0,-1.2752,-1.2763,-1.2825,-1.2829,-1.2795,-1.2837,-1.2845,-1.2858,-1.2898,-1.2904,-1.2881,-1.2883,-1.2937,-1.2942,-1.2947,-1.2966,-1.297,-1.2972,-1.2973,-1.3026,-1.3026,-1.3026,0,0,0,0,0,0,-1.275,-1.2757,-1.2823,-1.2797,-1.2805,-1.2839,-1.2853,-1.2859,-1.287,-1.2904,-1.2911,-1.2887,-1.2937,-1.2944,-1.2966,-1.2968,-1.2973,-1.2975,-1.3026,-1.3026,-1.3026,-1.3002,0,0,0,0,0,0,-1.2748,-1.2757,-1.2761,-1.2796,-1.2807,-1.284,-1.2853,-1.286,-1.2874,-1.2877,-1.2911,-1.2917,-1.2938,-1.2963,-1.2969,-1.2972,-1.2977,-1.3026,-1.3026,-1.3026,-1.3003,-1.3001,-1.3,0,0,0,0,0,-1.2745,-1.2752,-1.2761,-1.2769,-1.2813,-1.284,-1.2846,-1.2869,-1.2874,-1.288,-1.2902,-1.2916,-1.2967,-1.2965,-1.2972,-1.2975,-1.3026,-1.3026,-1.3026,-1.3003,-1.3001,-1.3,0,0,0,0,0,0,-1.2717,-1.2757,-1.2768,-1.2787,-1.281,-1.2845,-1.2853,-1.2867,-1.2889,-1.289,-1.2919,-1.2926,-1.2946,-1.2963,-1.2959,-1.299,-1.2998,-1.2999,-1.2978,-1.2977,-1.2975,-1.2971,-1.2979,0,0,0,0,0,-1.2713,-1.273,-1.2765,-1.2779,-1.279,-1.2819,-1.2832,-1.2848,-1.2873,-1.2882,-1.2906,-1.293,-1.2952,-1.2965,-1.2987,-1.3005,-1.3014,-1.3011,-1.301,-1.3009,-1.301,-1.3021,-1.3021,-1.3026,-1.3026,-1.3026,0,0,-1.2705,-1.2729,-1.2738,-1.2774,-1.2793,-1.2812,-1.2827,-1.2845,-1.286,-1.2885,-1.2908,-1.2926,-1.2955,-1.2975,-1.2986,-1.299,-1.301,-1.3009,-1.3007,-1.3009,-1.3021,-1.3021,-1.302,-1.3026,-1.3026,-1.3026,0,0,-1.2699,-1.2719,-1.2733,-1.2753,-1.2782,-1.2802,-1.2805,-1.2839,-1.2852,-1.2875,-1.2895,-1.2912,-1.2948,-1.2968,-1.2983,-1.2987,-1.3001,-1.2993,-1.2985,-1.2996,-1.2996,-1.2996,-1.2998,-1.2998,-1.2994,-1.2994,-1.2994,0,-1.2685,-1.2713,-1.2738,-1.2756,-1.2771,-1.2796,-1.281,-1.2828,-1.2863,-1.2873,-1.2878,-1.2925,-1.2946,-1.2972,-1.2972,-1.2983,-1.2989,-1.2989,-1.2994,-1.2994,-1.2994,-1.2996,-1.2997,-1.2992,-1.2993,-1.2993,-1.2993,0,-1.2695,-1.2715,-1.2722,-1.2756,-1.2772,-1.2788,-1.2816,-1.2829,-1.2844,-1.2864,-1.2887,-1.2914,-1.2941,-1.2949,-1.2963,-1.2977,-1.2979,-1.2988,-1.2997,-1.2992,-1.2995,-1.2995,-1.2991,-1.2991,-1.2992,-1.2992,0,0,-1.2673,-1.2721,-1.2723,-1.2739,-1.2774,-1.2789,-1.2807,-1.2834,-1.2845,-1.2869,-1.2885,-1.2915,-1.2925,-1.2941,-1.2959,-1.2969,-1.2971,-1.2977,-1.2979,-1.2975,-1.2988,-1.298,-1.2981,-1.298,-1.2981,-1.2981,-1.2985,0,-1.2673,-1.2705,-1.2728,-1.2752,-1.277,-1.2794,-1.281,-1.2833,-1.2852,-1.2871,-1.2892,-1.2913,-1.2924,-1.2934,-1.2945,-1.2968,-1.2973,-1.2968,-1.2996,-1.2996,-1.2988,-1.2982,-1.2974,-1.2977,-1.2986,-1.2987,-1.2987,0,-1.2676,-1.2699,-1.2724,-1.2758,-1.2767,-1.278,-1.2807,-1.2825,-1.2852,-1.2866,-1.2885,-1.2903,-1.2923,-1.293,-1.2959,-1.2955,-1.2968,-1.2981,-1.2981,-1.2985,-1.2991,-1.2985,-1.2978,-1.2979,-1.2988,-1.2988,-1.2988,0,-1.2658,-1.2695,-1.2715,-1.2728,-1.2768,-1.2777,-1.2794,-1.2821,-1.2836,-1.286,-1.2871,-1.2897,-1.2911,-1.2931,-1.2956,-1.2958,-1.2983,-1.2991,-1.2995,-1.2994,-1.2999,-1.2998,-1.2994,-1.3007,-1.3007,-1.3007,-1.3007,0,-1.2655,-1.2669,-1.2708,-1.272,-1.2737,-1.2764,-1.2781,-1.28,-1.2825,-1.2842,-1.2864,-1.288,-1.2912,-1.2932,-1.2952,-1.2973,-1.2979,-1.2991,-1.2996,-1.2989,-1.2988,-1.2998,-1.2998,-1.3007,-1.3007,-1.3007,-1.3007,0,-1.2637,-1.2663,-1.2686,-1.2722,-1.2732,-1.2743,-1.2774,-1.2787,-1.2808,-1.2829,-1.2836,-1.2868,-1.2893,-1.292,-1.2954,-1.2967,-1.2987,-1.2995,-1.2978,-1.2981,-1.2983,-1.2982,-1.2985,-1.2987,-1.2998,-1.2998,-1.2998,0,-1.2633,-1.2645,-1.2682,-1.2695,-1.2712,-1.2732,-1.2748,-1.2776,-1.2791,-1.2824,-1.2833,-1.286,-1.2882,-1.292,-1.2947,-1.2973,-1.2982,-1.2981,-1.2986,-1.2978,-1.2982,-1.2981,-1.2983,-1.2979,-1.2979,-1.2979,-1.2979,0,-1.2624,-1.2636,-1.2658,-1.2684,-1.2702,-1.2724,-1.2747,-1.2756,-1.2789,-1.2805,-1.2831,-1.2848,-1.2883,-1.2909,-1.2939,-1.2957,-1.2973,-1.2977,-1.2979,-1.2972,-1.2962,-1.2968,-1.2974,-1.2977,-1.2977,-1.2977,-1.2977,-1.2977,-1.2613,-1.2625,-1.2653,-1.2676,-1.2697,-1.2718,-1.2732,-1.2755,-1.2777,-1.2807,-1.2822,-1.2847,-1.2876,-1.2918,-1.2936,-1.2956,-1.2962,-1.2965,-1.2966,-1.2966,-1.2964,-1.2959,-1.2962,-1.2962,-1.2962,-1.2962,-1.2962,0,-1.2605,-1.2625,-1.2646,-1.2677,-1.2696,-1.271,-1.2736,-1.2751,-1.2773,-1.2798,-1.282,-1.285,-1.2875,-1.2905,-1.2933,-1.2944,-1.2952,-1.295,-1.2949,-1.2954,-1.2958,-1.2953,-1.2943,-1.2943,-1.2943,-1.2943,-1.2943,-1.2943,-1.2603,-1.2624,-1.264,-1.2672,-1.2691,-1.2716,-1.273,-1.275,-1.2771,-1.2803,-1.2824,-1.2843,-1.287,-1.29,-1.2925,-1.2933,-1.2942,-1.2938,-1.2948,-1.2952,-1.2953,-1.2955,-1.295,-1.294,-1.294,-1.2942,-1.2942,-1.2942]}]]